AirNav  
 
 503 users online  

TX6 Twisted JS Airport
Farmersville, Texas, USA


FAA INFORMATION EFFECTIVE 04 JANUARY 2018

Location

FAA Identifier: TX6
Lat/Long: 33-05-34.6000N / 096-23-24.1000W
33-05.576667N / 096-23.401667W
33.0929444 / -96.3900278
(estimated)
Elevation: 597 ft. / 182 m (estimated)
From city: 4 miles SE of FARMERSVILLE, TX
Time zone: UTC -6 (UTC -5 during Daylight Saving Time)
Zip code: 75173

Airport Operations

Airport use: Open to the public
Activation date: 11/2016
Control tower: no
ARTCC: FORT WORTH CENTER
FSS: FORT WORTH FLIGHT SERVICE STATION
NOTAMs facility: FTW (NOTAM-D service available)
Attendance: UNATTND
Wind indicator: yes
Segmented circle: no

Airport Communications

CTAF: 122.9
WX AWOS-3 at F46 (10 nm S): 121.25 (972-772-6699)
WX ASOS at TKI (11 nm NW): 119.925 (972-548-8525)
WX AWOS-3 at GVT (16 nm E): 133.425 (903-455-7703)

Nearby radio navigation aids

VOR radial/distance  VOR name  Freq  Var
BYPr190/27.8BONHAM VORTAC114.6006E
CVEr059/28.6COWBOY VOR/DME116.2006E
TTTr062/35.4MAVERICK VOR/DME113.1006E

 
NDB name  Hdg/Dist  Freq  Var  ID
CADDO MILLS288/7.831606EMII -- .. ..
MELISA132/14.242103EVLY ...- .-.. -.--
MESQUITE019/18.424803EPQF .--. --.- ..-.
TRAVIS334/21.226006EAVZ .- ...- --..

Airport Services

Runway Information

Runway 16/34

Dimensions: 1264 x 60 ft. / 385 x 18 m
Surface: turf, in good condition
RUNWAY 16  RUNWAY 34
Latitude: 33-05.676667N33-05.476667N
Longitude: 096-23.436667W096-23.366667W
Elevation: 583.0 ft.597.0 ft.
Traffic pattern: leftleft

Airport Ownership and Management from official FAA records

Ownership: Privately-owned
Owner: SUSAN JEANNETTE ELGIN
4329 COUNTY RD 597
FARMERSVILLE, TX 75442
Phone 214-707-5575
JEANNETTE_ELGIN@YAHOO.COM
Manager: JOE STANFIELD
4329 COUNTY RD 597
FARMERSVILLE, TX 75442
Phone 972-523-0017
STANFIELD_JOE@YAHOO.COM

Additional Remarks

CATTLE NEAR MOVEMENT AREAS.
RWY 16/34 CLSD TO TGL AND STUDENT PIT.
TREES 75FT N APCH END RWY 16 50FT AGL.

Instrument Procedures

There are no published instrument procedures at TX6.

Some nearby airports with instrument procedures:

7F3 - Caddo Mills Municipal Airport (8 nm SE)
F46 - Ralph M Hall/Rockwall Municipal Airport (10 nm S)
KTKI - McKinney National Airport (11 nm NW)
KGVT - Majors Airport (16 nm E)
KHQZ - Mesquite Metro Airport (22 nm S)
 
Loc | Ops | Rwys | IFR | FBO | Links
Com | Nav | Svcs | Stats | Notes

Lake Texoma Jet Center
AirBoss

 
Aerial photo
No photo
 
Airport distance calculator
Flying to Twisted JS Airport? Find the distance to fly.

From to TX6

Sunrise and sunset
Times for 24-Jan-2018
 Local
(UTC-6)
 Zulu
(UTC)
Morning civil twilight07:0013:00
Sunrise07:2713:27
Sunset17:4923:49
Evening civil twilight18:1500:15

Current date and time
Zulu (UTC)  24-Jan-2018 12:06:15
Local (UTC-6)  24-Jan-2018 06:06:15
 
METAR
KF46 
10nm S 
241155Z AUTO 00000KT 10SM CLR 01/M01 A3043 RMK AO2 T00121011 10046 20001
KTKI 
11nm NW 
241153Z 36003KT 10SM CLR M02/M05 A3043 RMK AO2 SLP316 T10221050 10006 21022 53011
KGVT 
16nm E 
241130Z AUTO 00000KT 10SM CLR 00/M03 A3042 RMK AO2
TAF
KDAL 
27nm SW 
241130Z 2412/2512 VRB03KT P6SM SKC FM241800 13005KT P6SM SKC
KDFW 
34nm W 
241130Z 2412/2518 VRB03KT P6SM SKC FM241800 13005KT P6SM SKC
NOTAMs
Click for the latest NOTAMs
NOTAMs are issued by the DoD/FAA and will open in a separate window not controlled by AirNav.

 

 
 

Would you like to see your business listed on this page?

 If your business provides an interesting product or service to pilots, flight crews, aircraft, or users of the Twisted JS Airport, you should consider listing it here.  To start the listing process, click on the button below
 
Add a business
 

Other Pages about Twisted JS Airport

Update a link
 
Copyright © AirNav, LLC. All rights reserved. Privacy Policy  Contact